Time,TemperatureF,DewpointF,PressureIn,WindDirection,WindDirectionDegrees,WindSpeedMPH,WindSpeedGustMPH,Humidity,HourlyPrecipIn,Conditions,Clouds,dailyrainin,SolarRadiationWatts/m^2,SoftwareType,DateUTC
2013-02-03 00:00:00,45.1,45.1,30.18,SSW,202,0.0,2.5,100,0.00,,,0.00,0.00,VWS V14.01,2013-02-03 08:00:00,
2013-02-03 00:01:00,45.7,45.7,30.21,SSW,202,0.0,0.0,100,0.00,,,0.00,0.00,VWS V14.01,2013-02-03 08:01:00,
2013-02-03 00:06:00,45.7,45.7,30.21,SSW,202,0.0,0.0,100,0.00,,,0.00,0.00,VWS V14.01,2013-02-03 08:06:00,
2013-02-03 00:11:00,45.3,45.3,30.21,SSW,202,0.0,0.0,100,0.00,,,0.00,0.00,VWS V14.01,2013-02-03 08:11:00,
2013-02-03 00:15:00,45.3,45.3,30.18,SSW,202,0.0,0.0,100,0.00,,,0.00,0.00,VWS V14.01,2013-02-03 08:15:00,
2013-02-03 00:16:00,45.1,45.1,30.21,SSW,202,0.0,0.0,100,0.00,,,0.00,0.00,VWS V14.01,2013-02-03 08:16:00,
2013-02-03 00:21:00,45.3,45.3,30.21,SSW,202,0.0,0.0,100,0.00,,,0.00,0.00,VWS V14.01,2013-02-03 08:21:00,
2013-02-03 00:26:00,45.1,45.1,30.21,SSW,202,0.0,0.0,100,0.00,,,0.00,0.00,VWS V14.01,2013-02-03 08:26:00,
2013-02-03 00:30:00,45.9,45.9,30.18,SSW,202,0.0,0.0,100,0.00,,,0.00,0.00,VWS V14.01,2013-02-03 08:30:00,
2013-02-03 00:31:00,45.0,45.0,30.21,SSW,202,1.1,2.0,100,0.00,,,0.00,0.00,VWS V14.01,2013-02-03 08:31:00,
2013-02-03 00:36:00,45.1,45.1,30.21,SSW,202,2.2,2.2,100,0.00,,,0.00,0.00,VWS V14.01,2013-02-03 08:36:00,
2013-02-03 00:41:00,45.1,45.1,30.21,SSW,202,0.0,2.2,100,0.00,,,0.00,0.00,VWS V14.01,2013-02-03 08:41:00,
2013-02-03 00:45:00,45.5,45.5,30.18,South,180,0.0,0.0,100,0.00,,,0.00,0.00,VWS V14.01,2013-02-03 08:45:00,
2013-02-03 00:46:00,45.1,45.1,30.21,SSW,202,0.0,1.1,100,0.00,,,0.00,0.00,VWS V14.01,2013-02-03 08:46:00,
2013-02-03 00:51:00,45.1,45.1,30.21,SSW,202,1.3,2.2,100,0.00,,,0.00,0.00,VWS V14.01,2013-02-03 08:51:00,
2013-02-03 00:56:00,45.1,45.1,30.18,SSW,202,0.0,2.5,100,0.00,,,0.00,0.00,VWS V14.01,2013-02-03 08:56:00,
2013-02-03 01:00:00,45.0,45.0,30.18,South,180,0.0,0.0,100,0.00,,,0.00,0.00,VWS V14.01,2013-02-03 09:00:00,
2013-02-03 01:01:00,45.0,45.0,30.18,SSW,202,0.0,0.0,100,0.00,,,0.00,0.00,VWS V14.01,2013-02-03 09:01:00,
2013-02-03 01:06:00,45.1,45.1,30.18,SSW,202,0.0,0.0,100,0.00,,,0.00,0.00,VWS V14.01,2013-02-03 09:06:00,
2013-02-03 01:11:00,45.3,45.3,30.18,SSW,202,0.0,0.0,100,0.00,,,0.00,0.00,VWS V14.01,2013-02-03 09:11:00,
2013-02-03 01:15:00,45.1,45.1,30.18,South,180,0.0,1.1,100,0.00,,,0.00,0.00,VWS V14.01,2013-02-03 09:15:00,
2013-02-03 01:16:00,45.3,45.3,30.18,SSW,202,0.0,0.0,100,0.00,,,0.00,0.00,VWS V14.01,2013-02-03 09:16:00,
2013-02-03 01:21:00,45.5,45.5,30.18,SSW,202,0.0,0.0,100,0.00,,,0.00,0.00,VWS V14.01,2013-02-03 09:21:00,
2013-02-03 01:26:00,45.7,45.7,30.18,SW,225,0.0,0.0,100,0.00,,,0.00,0.00,VWS V14.01,2013-02-03 09:26:00,
2013-02-03 01:30:00,46.6,46.6,30.18,SSW,202,1.3,2.7,100,0.00,,,0.00,0.00,VWS V14.01,2013-02-03 09:30:00,
2013-02-03 01:31:00,46.0,46.0,30.18,SSW,202,0.0,0.0,100,0.00,,,0.00,0.00,VWS V14.01,2013-02-03 09:31:00,
2013-02-03 01:36:00,45.7,45.7,30.18,SSW,202,0.0,0.0,100,0.00,,,0.00,0.00,VWS V14.01,2013-02-03 09:36:00,
2013-02-03 01:41:00,45.5,45.5,30.18,South,180,0.0,0.0,100,0.00,,,0.00,0.00,VWS V14.01,2013-02-03 09:41:00,
2013-02-03 01:45:00,46.9,46.9,30.18,SSW,202,0.0,1.6,100,0.00,,,0.00,0.00,VWS V14.01,2013-02-03 09:45:00,
2013-02-03 01:46:00,45.5,45.5,30.18,South,180,0.0,0.0,100,0.00,,,0.00,0.00,VWS V14.01,2013-02-03 09:46:00,
2013-02-03 01:51:00,45.3,45.3,30.18,South,180,0.0,0.0,100,0.00,,,0.00,0.00,VWS V14.01,2013-02-03 09:51:00,
2013-02-03 01:56:00,45.1,45.1,30.18,South,180,0.0,0.0,100,0.00,,,0.00,0.00,VWS V14.01,2013-02-03 09:56:00,
2013-02-03 02:00:00,47.3,47.3,30.18,SSW,202,0.0,0.0,100,0.00,,,0.00,0.00,VWS V14.01,2013-02-03 10:00:00,
2013-02-03 02:01:00,45.0,45.0,30.18,South,180,0.0,0.0,100,0.00,,,0.00,0.00,VWS V14.01,2013-02-03 10:01:00,
2013-02-03 02:07:00,45.1,45.1,30.18,South,180,0.0,1.1,100,0.00,,,0.00,0.00,VWS V14.01,2013-02-03 10:07:00,
2013-02-03 02:12:00,44.8,44.8,30.18,South,180,0.0,1.1,100,0.00,,,0.00,0.00,VWS V14.01,2013-02-03 10:12:00,
2013-02-03 02:15:00,47.5,47.5,30.18,SSW,202,0.0,0.0,100,0.00,,,0.00,0.00,VWS V14.01,2013-02-03 10:15:00,
2013-02-03 02:17:00,45.1,45.1,30.18,South,180,0.0,0.0,100,0.00,,,0.00,0.00,VWS V14.01,2013-02-03 10:17:00,
2013-02-03 02:22:00,45.9,45.9,30.18,South,180,0.0,1.3,100,0.00,,,0.00,0.00,VWS V14.01,2013-02-03 10:22:00,
2013-02-03 02:27:00,46.4,46.4,30.18,SSW,202,2.0,2.7,100,0.00,,,0.00,0.00,VWS V14.01,2013-02-03 10:27:00,
2013-02-03 02:30:00,46.8,46.8,30.18,SE,135,0.0,0.0,100,0.00,,,0.00,0.00,VWS V14.01,2013-02-03 10:30:00,
2013-02-03 02:32:00,46.6,46.6,30.18,SSW,202,0.0,1.6,100,0.00,,,0.00,0.00,VWS V14.01,2013-02-03 10:32:00,
2013-02-03 02:37:00,46.6,46.6,30.18,SSW,202,0.0,1.6,100,0.00,,,0.00,0.00,VWS V14.01,2013-02-03 10:37:00,
2013-02-03 02:42:00,46.9,46.9,30.18,SSW,202,0.0,1.6,100,0.00,,,0.00,0.00,VWS V14.01,2013-02-03 10:42:00,
2013-02-03 02:45:00,46.8,46.8,30.18,SE,135,0.0,0.0,100,0.00,,,0.00,0.00,VWS V14.01,2013-02-03 10:45:00,
2013-02-03 02:47:00,47.1,47.1,30.18,SSW,202,0.0,0.0,100,0.00,,,0.00,0.00,VWS V14.01,2013-02-03 10:47:00,
2013-02-03 02:52:00,47.3,47.3,30.18,SSW,202,0.0,0.0,100,0.00,,,0.00,0.00,VWS V14.01,2013-02-03 10:52:00,
2013-02-03 02:57:00,47.3,47.3,30.18,SSW,202,0.0,0.0,100,0.00,,,0.00,0.00,VWS V14.01,2013-02-03 10:57:00,
2013-02-03 03:00:00,46.9,46.9,30.18,SE,135,0.0,0.0,100,0.00,,,0.00,0.00,VWS V14.01,2013-02-03 11:00:00,
2013-02-03 03:02:00,47.3,47.3,30.18,SSW,202,0.0,0.0,100,0.00,,,0.00,0.00,VWS V14.01,2013-02-03 11:02:00,
2013-02-03 03:07:00,47.3,47.3,30.18,SSW,202,0.0,0.0,100,0.00,,,0.00,0.00,VWS V14.01,2013-02-03 11:07:00,
2013-02-03 03:12:00,47.5,47.5,30.18,SSW,202,0.0,0.0,100,0.00,,,0.00,0.00,VWS V14.01,2013-02-03 11:12:00,
2013-02-03 03:15:00,46.9,46.9,30.18,SE,135,0.0,0.0,100,0.00,,,0.00,0.00,VWS V14.01,2013-02-03 11:15:00,
2013-02-03 03:17:00,47.3,47.3,30.18,SSW,202,0.0,0.0,100,0.00,,,0.00,0.00,VWS V14.01,2013-02-03 11:17:00,
2013-02-03 03:22:00,46.9,46.9,30.18,SE,135,0.0,0.0,100,0.00,,,0.00,0.00,VWS V14.01,2013-02-03 11:22:00,
2013-02-03 03:27:00,46.9,46.9,30.18,SE,135,0.0,0.0,100,0.00,,,0.00,0.00,VWS V14.01,2013-02-03 11:27:00,
2013-02-03 03:30:00,47.1,47.1,30.15,SSW,202,0.0,0.0,100,0.00,,,0.00,0.00,VWS V14.01,2013-02-03 11:30:00,
2013-02-03 03:32:00,46.8,46.8,30.18,SE,135,0.0,0.0,100,0.00,,,0.00,0.00,VWS V14.01,2013-02-03 11:32:00,
2013-02-03 03:37:00,46.8,46.8,30.18,SE,135,0.0,0.0,100,0.00,,,0.00,0.00,VWS V14.01,2013-02-03 11:37:00,
2013-02-03 03:42:00,46.8,46.8,30.18,SE,135,0.0,0.0,100,0.00,,,0.00,0.00,VWS V14.01,2013-02-03 11:42:00,
2013-02-03 03:45:00,47.3,47.3,30.15,South,180,0.0,0.0,100,0.00,,,0.00,0.00,VWS V14.01,2013-02-03 11:45:00,
2013-02-03 03:47:00,46.8,46.8,30.18,SE,135,0.0,0.0,100,0.00,,,0.00,0.00,VWS V14.01,2013-02-03 11:47:00,
2013-02-03 03:52:00,46.8,46.8,30.18,SE,135,0.0,0.0,100,0.00,,,0.00,0.00,VWS V14.01,2013-02-03 11:52:00,
2013-02-03 03:57:00,46.8,46.8,30.18,SE,135,0.0,0.0,100,0.00,,,0.00,0.00,VWS V14.01,2013-02-03 11:57:00,
2013-02-03 04:00:00,47.3,47.3,30.18,South,180,0.0,0.0,100,0.00,,,0.00,0.00,VWS V14.01,2013-02-03 12:00:00,
2013-02-03 04:02:00,46.9,46.9,30.18,SE,135,0.0,0.0,100,0.00,,,0.00,0.00,VWS V14.01,2013-02-03 12:02:00,
2013-02-03 04:07:00,47.1,47.1,30.18,SE,135,0.0,0.0,100,0.00,,,0.00,0.00,VWS V14.01,2013-02-03 12:07:00,
2013-02-03 04:12:00,47.1,47.1,30.18,SE,135,0.0,0.0,100,0.00,,,0.00,0.00,VWS V14.01,2013-02-03 12:12:00,
2013-02-03 04:15:00,47.3,47.3,30.15,NW,315,0.0,0.0,100,0.00,,,0.00,0.00,VWS V14.01,2013-02-03 12:15:00,
2013-02-03 04:17:00,47.1,47.1,30.18,SE,135,0.0,0.0,100,0.00,,,0.00,0.00,VWS V14.01,2013-02-03 12:17:00,
2013-02-03 04:22:00,47.1,47.1,30.18,SE,135,0.0,0.0,100,0.00,,,0.00,0.00,VWS V14.01,2013-02-03 12:22:00,
2013-02-03 04:27:00,47.1,47.1,30.15,SSW,202,0.0,0.0,100,0.00,,,0.00,0.00,VWS V14.01,2013-02-03 12:27:00,
2013-02-03 04:30:00,47.5,47.5,30.15,SSE,158,0.0,0.0,100,0.00,,,0.00,0.00,VWS V14.01,2013-02-03 12:30:00,
2013-02-03 04:32:00,47.1,47.1,30.15,SSW,202,0.0,0.0,100,0.00,,,0.00,0.00,VWS V14.01,2013-02-03 12:32:00,
2013-02-03 04:37:00,47.3,47.3,30.15,South,180,0.0,0.0,100,0.00,,,0.00,0.00,VWS V14.01,2013-02-03 12:37:00,
2013-02-03 04:42:00,47.3,47.3,30.15,South,180,0.0,0.0,100,0.00,,,0.00,0.00,VWS V14.01,2013-02-03 12:42:00,
2013-02-03 04:45:00,47.3,47.3,30.15,SSE,158,0.0,0.0,100,0.00,,,0.00,0.00,VWS V14.01,2013-02-03 12:45:00,
2013-02-03 04:47:00,47.3,47.3,30.15,South,180,0.0,0.0,100,0.00,,,0.00,0.00,VWS V14.01,2013-02-03 12:47:00,
2013-02-03 04:52:00,47.3,47.3,30.18,South,180,0.0,0.0,100,0.00,,,0.00,0.00,VWS V14.01,2013-02-03 12:52:00,
2013-02-03 04:57:00,47.5,47.5,30.18,South,180,0.0,0.0,100,0.00,,,0.00,0.00,VWS V14.01,2013-02-03 12:57:00,
2013-02-03 05:00:00,47.3,47.3,30.15,SSE,158,0.0,0.0,100,0.00,,,0.00,0.00,VWS V14.01,2013-02-03 13:00:00,
2013-02-03 05:02:00,47.3,47.3,30.18,South,180,0.0,0.0,100,0.00,,,0.00,0.00,VWS V14.01,2013-02-03 13:02:00,
2013-02-03 05:07:00,47.3,47.3,30.15,WSW,248,0.0,0.0,100,0.00,,,0.00,0.00,VWS V14.01,2013-02-03 13:07:00,
2013-02-03 05:12:00,47.3,47.3,30.15,NW,315,0.0,0.0,100,0.00,,,0.00,0.00,VWS V14.01,2013-02-03 13:12:00,
2013-02-03 05:15:00,47.1,47.1,30.15,SSE,158,0.0,0.0,100,0.00,,,0.00,0.00,VWS V14.01,2013-02-03 13:15:00,
2013-02-03 05:17:00,47.3,47.3,30.15,NW,315,0.0,0.0,100,0.00,,,0.00,0.00,VWS V14.01,2013-02-03 13:17:00,
2013-02-03 05:22:00,47.3,47.3,30.15,NW,315,0.0,0.0,100,0.00,,,0.00,0.00,VWS V14.01,2013-02-03 13:22:00,
2013-02-03 05:27:00,47.3,47.3,30.15,SSE,158,0.0,0.0,100,0.00,,,0.00,0.00,VWS V14.01,2013-02-03 13:27:00,
2013-02-03 05:30:00,46.4,46.1,30.15,SSE,158,0.0,0.0,99,0.00,,,0.00,0.00,VWS V14.01,2013-02-03 13:30:00,
2013-02-03 05:32:00,47.5,47.5,30.15,SSE,158,0.0,0.0,100,0.00,,,0.00,0.00,VWS V14.01,2013-02-03 13:32:00,
2013-02-03 05:37:00,47.3,47.3,30.15,SSE,158,0.0,0.0,100,0.00,,,0.00,0.00,VWS V14.01,2013-02-03 13:37:00,
2013-02-03 05:42:00,47.3,47.3,30.15,SSE,158,0.0,0.0,100,0.00,,,0.00,0.00,VWS V14.01,2013-02-03 13:42:00,
2013-02-03 05:45:00,46.2,44.6,30.15,SSW,202,2.2,3.6,94,0.00,,,0.00,0.00,VWS V14.01,2013-02-03 13:45:00,
2013-02-03 05:47:00,47.3,47.3,30.15,SSE,158,0.0,0.0,100,0.00,,,0.00,0.00,VWS V14.01,2013-02-03 13:47:00,
2013-02-03 05:52:00,47.3,47.3,30.15,SSE,158,0.0,0.0,100,0.00,,,0.00,0.00,VWS V14.01,2013-02-03 13:52:00,
2013-02-03 05:57:00,47.3,47.3,30.15,SSE,158,0.0,0.0,100,0.00,,,0.00,0.00,VWS V14.01,2013-02-03 13:57:00,
2013-02-03 06:00:00,45.3,42.8,30.15,South,180,3.6,4.0,91,0.00,,,0.00,0.00,VWS V14.01,2013-02-03 14:00:00,
2013-02-03 06:02:00,47.3,47.3,30.15,SSE,158,0.0,0.0,100,0.00,,,0.00,0.00,VWS V14.01,2013-02-03 14:02:00,
2013-02-03 06:07:00,47.1,47.1,30.15,SSE,158,0.0,0.0,100,0.00,,,0.00,0.00,VWS V14.01,2013-02-03 14:07:00,
2013-02-03 06:13:00,47.1,47.1,30.15,SSE,158,0.0,0.0,100,0.00,,,0.00,0.00,VWS V14.01,2013-02-03 14:13:00,
2013-02-03 06:15:00,45.1,43.0,30.15,South,180,1.6,4.3,92,0.00,,,0.00,0.00,VWS V14.01,2013-02-03 14:15:00,
2013-02-03 06:18:00,47.1,47.1,30.15,SSE,158,0.0,0.0,100,0.00,,,0.00,0.00,VWS V14.01,2013-02-03 14:18:00,
2013-02-03 06:23:00,46.9,46.9,30.15,SSE,158,0.0,0.0,100,0.00,,,0.00,0.00,VWS V14.01,2013-02-03 14:23:00,
2013-02-03 06:28:00,46.6,46.3,30.15,SSE,158,0.0,0.0,99,0.00,,,0.00,0.00,VWS V14.01,2013-02-03 14:28:00,
2013-02-03 06:30:00,45.3,43.4,30.15,SSW,202,2.2,3.8,93,0.00,,,0.00,0.00,VWS V14.01,2013-02-03 14:30:00,
2013-02-03 06:33:00,46.6,46.0,30.15,SSW,202,0.0,0.0,98,0.00,,,0.00,0.00,VWS V14.01,2013-02-03 14:33:00,
2013-02-03 06:38:00,46.8,45.7,30.15,SSW,202,2.0,3.4,96,0.00,,,0.00,0.00,VWS V14.01,2013-02-03 14:38:00,
2013-02-03 06:43:00,46.4,44.8,30.15,SSW,202,1.6,3.6,94,0.00,,,0.00,0.00,VWS V14.01,2013-02-03 14:43:00,
2013-02-03 06:45:00,44.8,43.4,30.15,SSW,202,0.0,2.2,95,0.00,,,0.00,0.00,VWS V14.01,2013-02-03 14:45:00,
2013-02-03 06:48:00,46.0,44.1,30.15,SW,225,2.5,3.6,93,0.00,,,0.00,0.00,VWS V14.01,2013-02-03 14:48:00,
2013-02-03 06:53:00,45.9,43.4,30.15,SSW,202,3.8,4.0,91,0.00,,,0.00,0.00,VWS V14.01,2013-02-03 14:53:00,
2013-02-03 06:58:00,45.5,43.0,30.15,SSW,202,4.0,4.0,91,0.00,,,0.00,0.00,VWS V14.01,2013-02-03 14:58:00,
2013-02-03 07:00:00,44.2,43.4,30.15,SSW,202,0.0,0.0,97,0.00,,,0.00,0.00,VWS V14.01,2013-02-03 15:00:00,
2013-02-03 07:03:00,45.3,43.1,30.15,SSW,202,2.9,4.0,92,0.00,,,0.00,0.00,VWS V14.01,2013-02-03 15:03:00,
2013-02-03 07:08:00,45.1,43.0,30.15,SSW,202,2.5,4.0,92,0.00,,,0.00,0.00,VWS V14.01,2013-02-03 15:08:00,
2013-02-03 07:13:00,45.1,43.0,30.15,SW,225,3.4,4.3,92,0.00,,,0.00,0.00,VWS V14.01,2013-02-03 15:13:00,
2013-02-03 07:15:00,44.4,43.9,30.15,SSW,202,0.0,0.0,98,0.00,,,0.00,0.00,VWS V14.01,2013-02-03 15:15:00,
2013-02-03 07:18:00,45.1,43.0,30.15,SW,225,2.7,3.4,92,0.00,,,0.00,0.00,VWS V14.01,2013-02-03 15:18:00,
2013-02-03 07:23:00,45.1,43.2,30.15,SSW,202,2.7,3.8,93,0.00,,,0.00,0.00,VWS V14.01,2013-02-03 15:23:00,
2013-02-03 07:28:00,45.3,43.4,30.15,SSW,202,2.2,3.8,93,0.00,,,0.00,0.00,VWS V14.01,2013-02-03 15:28:00,
2013-02-03 07:30:00,44.6,44.3,30.15,SSW,202,0.0,0.0,99,0.00,,,0.00,0.00,VWS V14.01,2013-02-03 15:30:00,
2013-02-03 07:33:00,45.3,43.4,30.15,SSW,202,0.0,2.2,93,0.00,,,0.00,0.00,VWS V14.01,2013-02-03 15:33:00,
2013-02-03 07:38:00,45.0,43.3,30.15,SSW,202,0.0,2.2,94,0.00,,,0.00,0.00,VWS V14.01,2013-02-03 15:38:00,
2013-02-03 07:43:00,44.8,43.2,30.15,SSW,202,0.0,2.2,94,0.00,,,0.00,0.00,VWS V14.01,2013-02-03 15:43:00,
2013-02-03 07:45:00,45.7,45.4,30.18,SSW,202,0.0,2.0,99,0.00,,,0.00,0.00,VWS V14.01,2013-02-03 15:45:00,
2013-02-03 07:48:00,44.6,43.3,30.15,SSW,202,0.0,0.0,95,0.00,,,0.00,0.00,VWS V14.01,2013-02-03 15:48:00,
2013-02-03 07:53:00,44.4,43.3,30.15,SSW,202,0.0,0.0,96,0.00,,,0.00,0.00,VWS V14.01,2013-02-03 15:53:00,
2013-02-03 07:58:00,44.2,43.2,30.15,SSW,202,0.0,0.0,96,0.00,,,0.00,0.00,VWS V14.01,2013-02-03 15:58:00,
2013-02-03 08:00:00,46.2,45.4,30.18,SSW,202,0.0,0.0,97,0.00,,,0.00,0.00,VWS V14.01,2013-02-03 16:00:00,
2013-02-03 08:03:00,44.2,43.4,30.15,SSW,202,0.0,0.0,97,0.00,,,0.00,0.00,VWS V14.01,2013-02-03 16:03:00,
2013-02-03 08:08:00,44.4,43.9,30.15,SSW,202,0.0,0.0,98,0.00,,,0.00,0.00,VWS V14.01,2013-02-03 16:08:00,
2013-02-03 08:13:00,44.4,43.9,30.15,SSW,202,0.0,0.0,98,0.00,,,0.00,0.00,VWS V14.01,2013-02-03 16:13:00,
2013-02-03 08:15:00,46.9,45.9,30.18,SSW,202,0.0,0.0,96,0.00,,,0.00,0.00,VWS V14.01,2013-02-03 16:15:00,
2013-02-03 08:18:00,44.2,44.0,30.15,SSW,202,0.0,0.0,99,0.00,,,0.00,0.00,VWS V14.01,2013-02-03 16:18:00,
2013-02-03 08:23:00,44.2,44.0,30.15,SSW,202,0.0,0.0,99,0.00,,,0.00,0.00,VWS V14.01,2013-02-03 16:23:00,
2013-02-03 08:28:00,44.6,44.1,30.15,SSW,202,0.0,0.0,98,0.00,,,0.00,0.00,VWS V14.01,2013-02-03 16:28:00,
2013-02-03 08:30:00,47.8,46.5,30.18,SSW,202,0.0,1.1,95,0.00,,,0.00,0.00,VWS V14.01,2013-02-03 16:30:00,
2013-02-03 08:33:00,44.8,44.5,30.15,SSW,202,0.0,0.0,99,0.00,,,0.00,0.00,VWS V14.01,2013-02-03 16:33:00,
2013-02-03 08:38:00,45.0,44.7,30.18,SSW,202,0.0,0.0,99,0.00,,,0.00,0.00,VWS V14.01,2013-02-03 16:38:00,
2013-02-03 08:43:00,45.5,45.2,30.18,SSW,202,0.0,2.0,99,0.00,,,0.00,0.00,VWS V14.01,2013-02-03 16:43:00,
2013-02-03 08:45:00,48.7,47.1,30.18,SSW,202,0.0,0.0,94,0.00,,,0.00,0.00,VWS V14.01,2013-02-03 16:45:00,
2013-02-03 08:48:00,46.0,45.5,30.18,SSW,202,0.0,0.0,98,0.00,,,0.00,0.00,VWS V14.01,2013-02-03 16:48:00,
2013-02-03 08:53:00,46.0,45.5,30.18,SSW,202,0.0,0.0,98,0.00,,,0.00,0.00,VWS V14.01,2013-02-03 16:53:00,
2013-02-03 08:58:00,46.2,45.4,30.18,SSW,202,0.0,0.0,97,0.00,,,0.00,0.00,VWS V14.01,2013-02-03 16:58:00,
2013-02-03 09:00:00,50.9,45.3,30.18,NE,45,0.0,3.1,81,0.00,,,0.00,0.00,VWS V14.01,2013-02-03 17:00:00,
2013-02-03 09:03:00,46.4,45.6,30.18,SSW,202,0.0,0.0,97,0.00,,,0.00,0.00,VWS V14.01,2013-02-03 17:03:00,
2013-02-03 09:08:00,46.6,45.5,30.18,SSW,202,0.0,0.0,96,0.00,,,0.00,0.00,VWS V14.01,2013-02-03 17:08:00,
2013-02-03 09:13:00,46.8,45.7,30.18,SSW,202,0.0,0.0,96,0.00,,,0.00,0.00,VWS V14.01,2013-02-03 17:13:00,
2013-02-03 09:15:00,52.7,46.0,30.18,SSE,158,0.0,2.9,78,0.00,,,0.00,0.00,VWS V14.01,2013-02-03 17:15:00,
2013-02-03 09:18:00,47.1,46.0,30.18,SSW,202,0.0,0.0,96,0.00,,,0.00,0.00,VWS V14.01,2013-02-03 17:18:00,
2013-02-03 09:23:00,47.3,46.2,30.18,SSW,202,0.0,0.0,96,0.00,,,0.00,0.00,VWS V14.01,2013-02-03 17:23:00,
2013-02-03 09:28:00,47.7,46.3,30.18,SSW,202,1.1,1.1,95,0.00,,,0.00,0.00,VWS V14.01,2013-02-03 17:28:00,
2013-02-03 09:30:00,53.2,46.2,30.21,ENE,68,0.0,4.3,77,0.00,,,0.00,0.00,VWS V14.01,2013-02-03 17:30:00,
2013-02-03 09:33:00,48.2,46.8,30.18,SSW,202,0.0,0.0,95,0.00,,,0.00,0.00,VWS V14.01,2013-02-03 17:33:00,
2013-02-03 09:38:00,48.4,46.7,30.18,SSW,202,0.0,0.0,94,0.00,,,0.00,0.00,VWS V14.01,2013-02-03 17:38:00,
2013-02-03 09:43:00,48.7,47.1,30.18,SSW,202,0.0,0.0,94,0.00,,,0.00,0.00,VWS V14.01,2013-02-03 17:43:00,
2013-02-03 09:45:00,52.0,46.0,30.18,SSW,202,0.0,2.9,80,0.00,,,0.00,0.00,VWS V14.01,2013-02-03 17:45:00,
2013-02-03 09:48:00,49.1,47.2,30.18,SSW,202,0.0,0.0,93,0.00,,,0.00,0.00,VWS V14.01,2013-02-03 17:48:00,
2013-02-03 09:53:00,50.4,48.4,30.18,SE,135,0.0,1.3,93,0.00,,,0.00,0.00,VWS V14.01,2013-02-03 17:53:00,
2013-02-03 09:58:00,50.9,46.6,30.18,NNE,22,1.3,2.7,85,0.00,,,0.00,0.00,VWS V14.01,2013-02-03 17:58:00,
2013-02-03 10:00:00,53.2,45.5,30.18,ESE,112,2.0,8.5,75,0.00,,,0.00,0.00,VWS V14.01,2013-02-03 18:00:00,
2013-02-03 10:03:00,51.3,45.3,30.18,NE,45,0.0,0.0,80,0.00,,,0.00,0.00,VWS V14.01,2013-02-03 18:03:00,
2013-02-03 10:08:00,52.0,45.3,30.18,East,90,1.3,2.9,78,0.00,,,0.00,0.00,VWS V14.01,2013-02-03 18:08:00,
2013-02-03 10:13:00,52.3,45.0,30.18,SSE,158,0.0,2.9,76,0.00,,,0.00,0.00,VWS V14.01,2013-02-03 18:13:00,
2013-02-03 10:15:00,53.6,45.5,30.18,NNE,22,4.9,6.3,74,0.00,,,0.00,0.00,VWS V14.01,2013-02-03 18:15:00,
2013-02-03 10:18:00,52.2,44.8,30.18,NE,45,0.0,4.3,76,0.00,,,0.00,0.00,VWS V14.01,2013-02-03 18:18:00,
2013-02-03 10:23:00,52.7,46.0,30.21,NE,45,0.0,4.3,78,0.00,,,0.00,0.00,VWS V14.01,2013-02-03 18:23:00,
2013-02-03 10:28:00,53.2,46.6,30.21,East,90,2.7,4.3,78,0.00,,,0.00,0.00,VWS V14.01,2013-02-03 18:28:00,
2013-02-03 10:30:00,54.0,45.9,30.18,NNE,22,2.5,7.6,74,0.00,,,0.00,0.00,VWS V14.01,2013-02-03 18:30:00,
2013-02-03 10:33:00,52.9,45.9,30.21,East,90,0.0,2.9,77,0.00,,,0.00,0.00,VWS V14.01,2013-02-03 18:33:00,
2013-02-03 10:38:00,52.3,46.0,30.18,SSW,202,0.0,2.9,79,0.00,,,0.00,0.00,VWS V14.01,2013-02-03 18:38:00,
2013-02-03 10:43:00,52.0,45.7,30.18,SSW,202,0.0,2.9,79,0.00,,,0.00,0.00,VWS V14.01,2013-02-03 18:43:00,
2013-02-03 10:45:00,55.0,45.5,30.15,NNE,22,2.5,6.3,70,0.00,,,0.00,0.00,VWS V14.01,2013-02-03 18:45:00,
2013-02-03 10:48:00,52.9,46.9,30.18,NNE,22,7.4,7.4,80,0.00,,,0.00,0.00,VWS V14.01,2013-02-03 18:48:00,
2013-02-03 10:53:00,53.2,45.9,30.18,NE,45,1.6,7.4,76,0.00,,,0.00,0.00,VWS V14.01,2013-02-03 18:53:00,
2013-02-03 10:58:00,53.2,45.5,30.18,NE,45,3.8,8.5,75,0.00,,,0.00,0.00,VWS V14.01,2013-02-03 18:58:00,
2013-02-03 11:00:00,55.9,45.5,30.15,ENE,68,3.6,7.6,68,0.00,,,0.00,0.00,VWS V14.01,2013-02-03 19:00:00,
2013-02-03 11:03:00,53.8,46.4,30.18,NNE,22,4.7,4.7,76,0.00,,,0.00,0.00,VWS V14.01,2013-02-03 19:03:00,
2013-02-03 11:08:00,53.8,45.7,30.18,North,0,4.0,6.3,74,0.00,,,0.00,0.00,VWS V14.01,2013-02-03 19:08:00,
2013-02-03 11:13:00,54.0,45.9,30.18,NNE,22,3.1,6.3,74,0.00,,,0.00,0.00,VWS V14.01,2013-02-03 19:13:00,
2013-02-03 11:15:00,56.3,44.7,30.15,NE,45,2.5,5.4,65,0.00,,,0.00,0.00,VWS V14.01,2013-02-03 19:15:00,
2013-02-03 11:18:00,53.8,46.0,30.18,NE,45,3.8,4.9,75,0.00,,,0.00,0.00,VWS V14.01,2013-02-03 19:18:00,
2013-02-03 11:23:00,53.6,45.9,30.18,North,0,2.5,7.6,75,0.00,,,0.00,0.00,VWS V14.01,2013-02-03 19:23:00,
2013-02-03 11:29:00,54.0,45.9,30.18,NE,45,4.0,7.6,74,0.00,,,0.00,0.00,VWS V14.01,2013-02-03 19:29:00,
2013-02-03 11:30:00,56.7,44.6,30.15,NE,45,0.0,4.3,64,0.00,,,0.00,0.00,VWS V14.01,2013-02-03 19:30:00,
2013-02-03 11:34:00,54.3,46.6,30.18,NNE,22,2.9,3.8,75,0.00,,,0.00,0.00,VWS V14.01,2013-02-03 19:34:00,
2013-02-03 11:39:00,55.4,46.2,30.15,NE,45,2.9,4.3,71,0.00,,,0.00,0.00,VWS V14.01,2013-02-03 19:39:00,
2013-02-03 11:44:00,54.9,44.9,30.15,ESE,112,2.0,6.3,69,0.00,,,0.00,0.00,VWS V14.01,2013-02-03 19:44:00,
2013-02-03 11:45:00,57.4,44.1,30.12,ENE,68,0.0,3.8,61,0.00,,,0.00,0.00,VWS V14.01,2013-02-03 19:45:00,
2013-02-03 11:49:00,55.0,45.5,30.15,NE,45,3.4,4.7,70,0.00,,,0.00,0.00,VWS V14.01,2013-02-03 19:49:00,
2013-02-03 11:54:00,55.4,46.2,30.15,NNW,338,3.8,7.6,71,0.00,,,0.00,0.00,VWS V14.01,2013-02-03 19:54:00,
2013-02-03 11:59:00,55.9,46.3,30.15,ENE,68,2.0,7.6,70,0.00,,,0.00,0.00,VWS V14.01,2013-02-03 19:59:00,
2013-02-03 12:00:00,56.7,46.6,30.12,SSW,202,3.6,6.5,69,0.00,,,0.00,0.00,VWS V14.01,2013-02-03 20:00:00,
2013-02-03 12:04:00,56.1,45.7,30.15,ENE,68,2.5,5.4,68,0.00,,,0.00,0.00,VWS V14.01,2013-02-03 20:04:00,
2013-02-03 12:09:00,56.8,45.6,30.15,NW,315,2.7,5.4,66,0.00,,,0.00,0.00,VWS V14.01,2013-02-03 20:09:00,
2013-02-03 12:14:00,56.3,43.9,30.15,NNW,338,0.0,5.4,63,0.00,,,0.00,0.00,VWS V14.01,2013-02-03 20:14:00,
2013-02-03 12:15:00,55.9,46.7,30.12,SSW,202,4.0,7.8,71,0.00,,,0.00,0.00,VWS V14.01,2013-02-03 20:15:00,
2013-02-03 12:19:00,56.5,44.5,30.15,East,90,2.7,4.0,64,0.00,,,0.00,0.00,VWS V14.01,2013-02-03 20:19:00,
2013-02-03 12:24:00,56.1,43.7,30.15,North,0,0.0,4.3,63,0.00,,,0.00,0.00,VWS V14.01,2013-02-03 20:24:00,
2013-02-03 12:29:00,56.5,44.0,30.15,ENE,68,0.0,4.3,63,0.00,,,0.00,0.00,VWS V14.01,2013-02-03 20:29:00,
2013-02-03 12:30:00,55.9,47.1,30.12,South,180,8.5,9.8,72,0.00,,,0.00,0.00,VWS V14.01,2013-02-03 20:30:00,
2013-02-03 12:34:00,57.0,45.0,30.15,SE,135,0.0,0.0,64,0.00,,,0.00,0.00,VWS V14.01,2013-02-03 20:34:00,
2013-02-03 12:39:00,57.2,44.3,30.12,NE,45,2.0,3.8,62,0.00,,,0.00,0.00,VWS V14.01,2013-02-03 20:39:00,
2013-02-03 12:44:00,57.4,44.1,30.12,East,90,1.1,3.8,61,0.00,,,0.00,0.00,VWS V14.01,2013-02-03 20:44:00,
2013-02-03 12:45:00,55.9,45.9,30.12,SSE,158,7.8,8.5,69,0.00,,,0.00,0.00,VWS V14.01,2013-02-03 20:45:00,
2013-02-03 12:49:00,57.6,44.2,30.12,East,90,0.0,0.0,61,0.00,,,0.00,0.00,VWS V14.01,2013-02-03 20:49:00,
2013-02-03 12:54:00,56.8,46.0,30.12,SSE,158,0.0,6.5,67,0.00,,,0.00,0.00,VWS V14.01,2013-02-03 20:54:00,
2013-02-03 12:59:00,57.0,47.0,30.12,SE,135,3.8,6.5,69,0.00,,,0.00,0.00,VWS V14.01,2013-02-03 20:59:00,
2013-02-03 13:00:00,55.9,47.1,30.09,SSE,158,6.5,9.8,72,0.00,,,0.00,0.00,VWS V14.01,2013-02-03 21:00:00,
2013-02-03 13:04:00,56.7,46.6,30.12,ESE,112,2.2,5.6,69,0.00,,,0.00,0.00,VWS V14.01,2013-02-03 21:04:00,
2013-02-03 13:09:00,56.1,46.1,30.12,SSW,202,3.1,6.9,69,0.00,,,0.00,0.00,VWS V14.01,2013-02-03 21:09:00,
2013-02-03 13:14:00,55.8,46.5,30.12,South,180,2.7,7.8,71,0.00,,,0.00,0.00,VWS V14.01,2013-02-03 21:14:00,
2013-02-03 13:15:00,57.0,48.5,30.09,SSE,158,4.9,7.4,73,0.00,,,0.00,0.00,VWS V14.01,2013-02-03 21:15:00,
2013-02-03 13:19:00,56.5,47.2,30.12,SW,225,8.1,8.1,71,0.00,,,0.00,0.00,VWS V14.01,2013-02-03 21:19:00,
2013-02-03 13:24:00,55.4,46.2,30.12,SSE,158,2.0,9.8,71,0.00,,,0.00,0.00,VWS V14.01,2013-02-03 21:24:00,
2013-02-03 13:29:00,55.9,47.1,30.12,SSE,158,0.0,9.8,72,0.00,,,0.00,0.00,VWS V14.01,2013-02-03 21:29:00,
2013-02-03 13:30:00,56.8,47.9,30.09,SSE,158,3.6,7.2,72,0.00,,,0.00,0.00,VWS V14.01,2013-02-03 21:30:00,
2013-02-03 13:34:00,55.8,46.5,30.12,South,180,5.8,8.5,71,0.00,,,0.00,0.00,VWS V14.01,2013-02-03 21:34:00,
2013-02-03 13:39:00,55.8,46.5,30.12,South,180,3.8,8.5,71,0.00,,,0.00,0.00,VWS V14.01,2013-02-03 21:39:00,
2013-02-03 13:44:00,55.9,45.9,30.12,SSE,158,6.5,8.5,69,0.00,,,0.00,0.00,VWS V14.01,2013-02-03 21:44:00,
2013-02-03 13:45:00,57.6,48.2,30.09,South,180,1.6,7.4,71,0.00,,,0.00,0.00,VWS V14.01,2013-02-03 21:45:00,
2013-02-03 13:49:00,56.1,46.1,30.12,SSE,158,4.3,9.8,69,0.00,,,0.00,0.00,VWS V14.01,2013-02-03 21:49:00,
2013-02-03 13:54:00,56.1,46.5,30.09,ESE,112,7.4,9.8,70,0.00,,,0.00,0.00,VWS V14.01,2013-02-03 21:54:00,
2013-02-03 13:59:00,55.9,47.1,30.09,SSE,158,4.9,9.8,72,0.00,,,0.00,0.00,VWS V14.01,2013-02-03 21:59:00,
2013-02-03 14:00:00,56.7,48.1,30.06,SSE,158,0.0,6.0,73,0.00,,,0.00,0.00,VWS V14.01,2013-02-03 22:00:00,
2013-02-03 14:04:00,55.9,47.1,30.09,SE,135,3.8,7.2,72,0.00,,,0.00,0.00,VWS V14.01,2013-02-03 22:04:00,
2013-02-03 14:09:00,56.3,47.8,30.09,South,180,4.3,7.2,73,0.00,,,0.00,0.00,VWS V14.01,2013-02-03 22:09:00,
2013-02-03 14:14:00,57.0,48.5,30.09,SSE,158,1.1,7.4,73,0.00,,,0.00,0.00,VWS V14.01,2013-02-03 22:14:00,
2013-02-03 14:15:00,56.8,48.7,30.06,South,180,2.5,5.6,74,0.00,,,0.00,0.00,VWS V14.01,2013-02-03 22:15:00,
2013-02-03 14:19:00,57.2,47.9,30.09,South,180,6.3,6.7,71,0.00,,,0.00,0.00,VWS V14.01,2013-02-03 22:19:00,
2013-02-03 14:24:00,57.0,48.1,30.09,SSW,202,1.3,6.7,72,0.00,,,0.00,0.00,VWS V14.01,2013-02-03 22:24:00,
2013-02-03 14:29:00,56.8,47.9,30.09,SSE,158,1.6,7.2,72,0.00,,,0.00,0.00,VWS V14.01,2013-02-03 22:29:00,
2013-02-03 14:30:00,56.5,48.3,30.06,South,180,0.0,4.9,74,0.00,,,0.00,0.00,VWS V14.01,2013-02-03 22:30:00,
2013-02-03 14:34:00,57.4,48.1,30.09,South,180,3.1,6.5,71,0.00,,,0.00,0.00,VWS V14.01,2013-02-03 22:34:00,
2013-02-03 14:39:00,57.2,47.5,30.09,South,180,2.9,7.4,70,0.00,,,0.00,0.00,VWS V14.01,2013-02-03 22:39:00,
2013-02-03 14:44:00,57.6,48.2,30.09,SW,225,2.5,7.4,71,0.00,,,0.00,0.00,VWS V14.01,2013-02-03 22:44:00,
2013-02-03 14:45:00,54.9,48.1,30.09,South,180,0.0,3.6,78,0.00,,,0.00,0.00,VWS V14.01,2013-02-03 22:45:00,
2013-02-03 14:49:00,56.8,47.5,30.09,SSE,158,5.8,6.0,71,0.00,,,0.00,0.00,VWS V14.01,2013-02-03 22:49:00,
2013-02-03 14:54:00,56.5,47.9,30.06,SSE,158,2.7,6.0,73,0.00,,,0.00,0.00,VWS V14.01,2013-02-03 22:54:00,
2013-02-03 14:59:00,56.7,48.1,30.06,SSW,202,1.1,6.0,73,0.00,,,0.00,0.00,VWS V14.01,2013-02-03 22:59:00,
2013-02-03 15:00:00,53.4,48.7,30.06,South,180,0.0,2.0,84,0.00,,,0.00,0.00,VWS V14.01,2013-02-03 23:00:00,
2013-02-03 15:04:00,56.7,48.1,30.06,South,180,2.2,5.6,73,0.00,,,0.00,0.00,VWS V14.01,2013-02-03 23:04:00,
2013-02-03 15:09:00,56.8,48.3,30.06,WSW,248,2.9,5.6,73,0.00,,,0.00,0.00,VWS V14.01,2013-02-03 23:09:00,
2013-02-03 15:14:00,56.8,48.7,30.06,SSW,202,0.0,5.6,74,0.00,,,0.00,0.00,VWS V14.01,2013-02-03 23:14:00,
2013-02-03 15:15:00,53.4,49.3,30.06,SSW,202,0.0,4.3,86,0.00,,,0.00,0.00,VWS V14.01,2013-02-03 23:15:00,
2013-02-03 15:19:00,56.7,48.5,30.06,South,180,2.9,4.9,74,0.00,,,0.00,0.00,VWS V14.01,2013-02-03 23:19:00,
2013-02-03 15:24:00,56.7,48.5,30.06,NW,315,0.0,4.9,74,0.00,,,0.00,0.00,VWS V14.01,2013-02-03 23:24:00,
2013-02-03 15:29:00,56.5,48.3,30.06,South,180,0.0,4.9,74,0.00,,,0.00,0.00,VWS V14.01,2013-02-03 23:29:00,
2013-02-03 15:30:00,52.3,48.9,30.06,SW,225,0.0,2.2,88,0.00,,,0.00,0.00,VWS V14.01,2013-02-03 23:30:00,
2013-02-03 15:34:00,55.6,47.8,30.06,South,180,2.2,3.6,75,0.00,,,0.00,0.00,VWS V14.01,2013-02-03 23:34:00,
2013-02-03 15:39:00,55.2,47.8,30.09,SSW,202,1.6,3.6,76,0.00,,,0.00,0.00,VWS V14.01,2013-02-03 23:39:00,
2013-02-03 15:44:00,54.9,48.1,30.09,South,180,2.2,3.6,78,0.00,,,0.00,0.00,VWS V14.01,2013-02-03 23:44:00,
2013-02-03 15:45:00,52.3,49.8,30.06,SSW,202,0.0,3.1,91,0.00,,,0.00,0.00,VWS V14.01,2013-02-03 23:45:00,
2013-02-03 15:49:00,54.3,48.3,30.09,South,180,0.0,2.0,80,0.00,,,0.00,0.00,VWS V14.01,2013-02-03 23:49:00,
2013-02-03 15:54:00,53.8,48.1,30.06,South,180,0.0,2.0,81,0.00,,,0.00,0.00,VWS V14.01,2013-02-03 23:54:00,
2013-02-03 15:59:00,53.4,48.7,30.06,South,180,0.0,2.0,84,0.00,,,0.00,0.00,VWS V14.01,2013-02-03 23:59:00,
2013-02-03 16:00:00,52.3,49.8,30.06,SSW,202,1.6,3.6,91,0.00,,,0.00,0.00,VWS V14.01,2013-02-04 00:00:00,
2013-02-03 16:04:00,53.2,48.8,30.06,South,180,0.0,3.6,85,0.00,,,0.00,0.00,VWS V14.01,2013-02-04 00:04:00,
2013-02-03 16:09:00,53.4,49.3,30.06,SSW,202,0.0,4.3,86,0.00,,,0.00,0.00,VWS V14.01,2013-02-04 00:09:00,
2013-02-03 16:14:00,53.4,49.3,30.06,SSW,202,0.0,4.3,86,0.00,,,0.00,0.00,VWS V14.01,2013-02-04 00:14:00,
2013-02-03 16:15:00,51.8,49.3,30.06,SSW,202,0.0,3.6,91,0.00,,,0.00,0.00,VWS V14.01,2013-02-04 00:15:00,
2013-02-03 16:20:00,52.9,49.1,30.06,SSW,202,0.0,0.0,87,0.00,,,0.00,0.00,VWS V14.01,2013-02-04 00:20:00,
2013-02-03 16:25:00,52.7,49.0,30.06,SSE,158,0.0,2.2,87,0.00,,,0.00,0.00,VWS V14.01,2013-02-04 00:25:00,
2013-02-03 16:30:00,52.3,48.9,30.06,SSW,202,0.0,2.2,88,0.00,,,0.00,0.00,VWS V14.01,2013-02-04 00:30:00,
2013-02-03 16:35:00,52.3,49.2,30.06,SSW,202,0.0,2.7,89,0.00,,,0.00,0.00,VWS V14.01,2013-02-04 00:35:00,
2013-02-03 16:40:00,52.2,49.3,30.06,SSW,202,0.0,2.7,90,0.00,,,0.00,0.00,VWS V14.01,2013-02-04 00:40:00,
2013-02-03 16:45:00,52.3,49.8,30.06,SSW,202,0.0,3.1,91,0.00,,,0.00,0.00,VWS V14.01,2013-02-04 00:45:00,
2013-02-03 16:50:00,52.2,49.6,30.06,SSW,202,0.0,2.5,91,0.00,,,0.00,0.00,VWS V14.01,2013-02-04 00:50:00,
2013-02-03 16:55:00,52.2,49.6,30.06,SSW,202,0.0,2.5,91,0.00,,,0.00,0.00,VWS V14.01,2013-02-04 00:55:00,
2013-02-03 17:00:00,52.3,49.8,30.06,SSW,202,1.6,1.6,91,0.00,,,0.00,0.00,VWS V14.01,2013-02-04 01:00:00,
2013-02-03 17:05:00,52.2,49.3,30.06,SSW,202,0.0,3.6,90,0.00,,,0.00,0.00,VWS V14.01,2013-02-04 01:05:00,
2013-02-03 17:10:00,51.8,49.3,30.06,SSW,202,0.0,3.6,91,0.00,,,0.00,0.00,VWS V14.01,2013-02-04 01:10:00,
2013-02-03 17:15:00,51.8,49.3,30.06,SSW,202,1.1,1.1,91,0.00,,,0.00,0.00,VWS V14.01,2013-02-04 01:15:00,
2013-02-03 17:20:00,51.6,49.4,30.06,SSW,202,2.5,2.9,92,0.00,,,0.00,0.00,VWS V14.01,2013-02-04 01:20:00,
2013-02-03 17:25:00,52.0,49.7,30.06,South,180,2.2,3.6,92,0.00,,,0.00,0.00,VWS V14.01,2013-02-04 01:25:00,
2013-02-03 17:30:00,52.0,49.4,30.06,South,180,3.1,3.6,91,0.00,,,0.00,0.00,VWS V14.01,2013-02-04 01:30:00,
2013-02-03 17:35:00,51.6,49.1,30.06,South,180,1.3,4.3,91,0.00,,,0.00,0.00,VWS V14.01,2013-02-04 01:35:00,
2013-02-03 17:40:00,51.3,49.0,30.06,SSW,202,2.2,4.3,92,0.00,,,0.00,0.00,VWS V14.01,2013-02-04 01:40:00,
2013-02-03 17:45:00,51.3,49.0,30.06,SW,225,3.1,3.4,92,0.00,,,0.00,0.00,VWS V14.01,2013-02-04 01:45:00,
2013-02-03 17:50:00,51.1,48.8,30.06,SSW,202,2.2,3.4,92,0.00,,,0.00,0.00,VWS V14.01,2013-02-04 01:50:00,
2013-02-03 17:55:00,51.3,49.0,30.06,SSW,202,0.0,3.8,92,0.00,,,0.00,0.00,VWS V14.01,2013-02-04 01:55:00,
2013-02-03 18:00:00,51.1,48.8,30.06,SSW,202,3.1,3.1,92,0.00,,,0.00,0.00,VWS V14.01,2013-02-04 02:00:00,
2013-02-03 18:05:00,51.3,49.0,30.06,SW,225,2.0,4.9,92,0.00,,,0.00,0.00,VWS V14.01,2013-02-04 02:05:00,
2013-02-03 18:10:00,51.1,48.8,30.06,South,180,3.4,4.9,92,0.00,,,0.00,0.00,VWS V14.01,2013-02-04 02:10:00,
2013-02-03 18:15:00,51.1,48.8,30.06,SW,225,2.7,3.8,92,0.00,,,0.00,0.00,VWS V14.01,2013-02-04 02:15:00,
2013-02-03 18:20:00,50.4,47.8,30.06,SSW,202,2.0,3.8,91,0.00,,,0.00,0.00,VWS V14.01,2013-02-04 02:20:00,
2013-02-03 18:25:00,50.2,48.0,30.06,South,180,0.0,3.8,92,0.00,,,0.00,0.00,VWS V14.01,2013-02-04 02:25:00,
2013-02-03 18:30:00,49.8,47.9,30.06,SSW,202,0.0,0.0,93,0.00,,,0.00,0.00,VWS V14.01,2013-02-04 02:30:00,
2013-02-03 18:35:00,49.8,48.2,30.06,SSW,202,2.0,2.7,94,0.00,,,0.00,0.00,VWS V14.01,2013-02-04 02:35:00,
2013-02-03 18:40:00,49.5,48.1,30.06,SSW,202,0.0,2.7,95,0.00,,,0.00,0.00,VWS V14.01,2013-02-04 02:40:00,
2013-02-03 18:45:00,49.1,47.7,30.06,SSW,202,0.0,0.0,95,0.00,,,0.00,0.00,VWS V14.01,2013-02-04 02:45:00,
2013-02-03 18:50:00,49.1,48.0,30.06,SSW,202,1.3,3.1,96,0.00,,,0.00,0.00,VWS V14.01,2013-02-04 02:50:00,
2013-02-03 18:55:00,49.3,48.2,30.06,SSW,202,2.0,3.1,96,0.00,,,0.00,0.00,VWS V14.01,2013-02-04 02:55:00,
2013-02-03 19:00:00,49.3,48.2,30.06,SSW,202,1.6,2.5,96,0.00,,,0.00,0.00,VWS V14.01,2013-02-04 03:00:00,
2013-02-03 19:05:00,49.1,48.0,30.06,SSW,202,2.5,2.7,96,0.00,,,0.00,0.00,VWS V14.01,2013-02-04 03:05:00,
2013-02-03 19:10:00,49.3,48.2,30.06,SSW,202,3.4,4.0,96,0.00,,,0.00,0.00,VWS V14.01,2013-02-04 03:10:00,
2013-02-03 19:15:00,49.5,48.7,30.06,SSW,202,2.7,2.9,97,0.00,,,0.00,0.00,VWS V14.01,2013-02-04 03:15:00,
2013-02-03 19:20:00,49.1,48.0,30.06,SSW,202,2.9,3.4,96,0.00,,,0.00,0.00,VWS V14.01,2013-02-04 03:20:00,
2013-02-03 19:25:00,48.7,47.7,30.06,SSW,202,0.0,3.4,96,0.00,,,0.00,0.00,VWS V14.01,2013-02-04 03:25:00,
2013-02-03 19:30:00,48.9,48.1,30.06,SSW,202,0.0,2.2,97,0.00,,,0.00,0.00,VWS V14.01,2013-02-04 03:30:00,
2013-02-03 19:35:00,48.6,47.8,30.06,SSW,202,0.0,2.2,97,0.00,,,0.00,0.00,VWS V14.01,2013-02-04 03:35:00,
2013-02-03 19:40:00,48.4,47.6,30.06,SW,225,0.0,2.2,97,0.00,,,0.00,0.00,VWS V14.01,2013-02-04 03:40:00,
2013-02-03 19:45:00,48.4,47.8,30.06,SSW,202,0.0,0.0,98,0.00,,,0.00,0.00,VWS V14.01,2013-02-04 03:45:00,
2013-02-03 19:50:00,47.8,47.3,30.06,SSW,202,0.0,0.0,98,0.00,,,0.00,0.00,VWS V14.01,2013-02-04 03:50:00,
2013-02-03 19:55:00,47.8,47.3,30.06,South,180,0.0,1.1,98,0.00,,,0.00,0.00,VWS V14.01,2013-02-04 03:55:00,
2013-02-03 20:00:00,48.0,47.5,30.06,SSW,202,0.0,2.0,98,0.00,,,0.00,0.00,VWS V14.01,2013-02-04 04:00:00,
2013-02-03 20:05:00,48.0,47.8,30.06,SSW,202,0.0,2.0,99,0.00,,,0.00,0.00,VWS V14.01,2013-02-04 04:05:00,
2013-02-03 20:11:00,47.8,47.6,30.06,SSW,202,0.0,2.0,99,0.00,,,0.00,0.00,VWS V14.01,2013-02-04 04:11:00,
2013-02-03 20:15:00,47.3,47.3,30.06,South,180,0.0,0.0,100,0.00,,,0.00,0.00,VWS V14.01,2013-02-04 04:15:00,
2013-02-03 20:16:00,48.0,47.8,30.06,SSW,202,0.0,0.0,99,0.00,,,0.00,0.00,VWS V14.01,2013-02-04 04:16:00,
2013-02-03 20:21:00,48.0,48.0,30.06,SSW,202,0.0,0.0,100,0.00,,,0.00,0.00,VWS V14.01,2013-02-04 04:21:00,
2013-02-03 20:26:00,48.7,48.7,30.06,SSW,202,0.0,0.0,100,0.00,,,0.00,0.00,VWS V14.01,2013-02-04 04:26:00,
2013-02-03 20:30:00,47.1,47.1,30.06,SSW,202,0.0,0.0,100,0.00,,,0.00,0.00,VWS V14.01,2013-02-04 04:30:00,
2013-02-03 20:31:00,47.8,47.8,30.06,SSW,202,0.0,0.0,100,0.00,,,0.00,0.00,VWS V14.01,2013-02-04 04:31:00,
2013-02-03 20:36:00,47.8,47.8,30.06,SSW,202,0.0,0.0,100,0.00,,,0.00,0.00,VWS V14.01,2013-02-04 04:36:00,
2013-02-03 20:41:00,47.8,47.8,30.06,SSW,202,0.0,0.0,100,0.00,,,0.00,0.00,VWS V14.01,2013-02-04 04:41:00,
2013-02-03 20:45:00,46.6,46.6,30.06,SSW,202,0.0,0.0,100,0.00,,,0.00,0.00,VWS V14.01,2013-02-04 04:45:00,
2013-02-03 20:46:00,47.7,47.7,30.06,SSW,202,0.0,0.0,100,0.00,,,0.00,0.00,VWS V14.01,2013-02-04 04:46:00,
2013-02-03 20:51:00,47.7,47.7,30.06,SW,225,0.0,0.0,100,0.00,,,0.00,0.00,VWS V14.01,2013-02-04 04:51:00,
2013-02-03 20:56:00,47.7,47.7,30.06,SSW,202,0.0,0.0,100,0.00,,,0.00,0.00,VWS V14.01,2013-02-04 04:56:00,
2013-02-03 21:00:00,46.6,46.6,30.06,SSW,202,0.0,0.0,100,0.00,,,0.00,0.00,VWS V14.01,2013-02-04 05:00:00,
2013-02-03 21:01:00,47.5,47.5,30.06,SSW,202,0.0,0.0,100,0.00,,,0.00,0.00,VWS V14.01,2013-02-04 05:01:00,
2013-02-03 21:04:00,47.3,47.3,30.06,SSW,202,0.0,0.0,100,0.00,,,0.00,0.00,VWS V14.01,2013-02-04 05:04:00,
2013-02-03 21:05:00,47.3,47.3,30.06,SSW,202,0.0,0.0,100,0.00,,,0.00,0.00,VWS V14.01,2013-02-04 05:05:00,
2013-02-03 21:10:00,47.3,47.3,30.06,SSW,202,0.0,0.0,100,0.00,,,0.00,0.00,VWS V14.01,2013-02-04 05:10:00,
2013-02-03 21:12:00,47.3,47.3,30.06,SSW,202,0.0,0.0,100,0.00,,,0.00,0.00,VWS V14.01,2013-02-04 05:12:00,
2013-02-03 21:15:00,46.4,46.4,30.06,SSW,202,0.0,0.0,100,0.00,,,0.00,0.00,VWS V14.01,2013-02-04 05:15:00,
2013-02-03 21:17:00,47.3,47.3,30.06,South,180,0.0,0.0,100,0.00,,,0.00,0.00,VWS V14.01,2013-02-04 05:17:00,
2013-02-03 21:22:00,47.1,47.1,30.06,SSW,202,0.0,0.0,100,0.00,,,0.00,0.00,VWS V14.01,2013-02-04 05:22:00,
2013-02-03 21:27:00,47.1,47.1,30.06,SSW,202,0.0,0.0,100,0.00,,,0.00,0.00,VWS V14.01,2013-02-04 05:27:00,
2013-02-03 21:30:00,46.2,46.2,30.09,SSW,202,0.0,0.0,100,0.00,,,0.00,0.00,VWS V14.01,2013-02-04 05:30:00,
2013-02-03 21:34:00,46.9,46.9,30.06,SSW,202,0.0,0.0,100,0.00,,,0.00,0.00,VWS V14.01,2013-02-04 05:34:00,
2013-02-03 21:39:00,46.8,46.8,30.06,SSW,202,0.0,0.0,100,0.00,,,0.00,0.00,VWS V14.01,2013-02-04 05:39:00,
2013-02-03 21:44:00,46.6,46.6,30.06,SSW,202,0.0,0.0,100,0.00,,,0.00,0.00,VWS V14.01,2013-02-04 05:44:00,
2013-02-03 21:45:00,45.9,45.9,30.06,SSW,202,0.0,0.0,100,0.00,,,0.00,0.00,VWS V14.01,2013-02-04 05:45:00,
2013-02-03 21:49:00,46.6,46.6,30.06,SSW,202,0.0,0.0,100,0.00,,,0.00,0.00,VWS V14.01,2013-02-04 05:49:00,
2013-02-03 21:54:00,46.6,46.6,30.06,SSW,202,0.0,0.0,100,0.00,,,0.00,0.00,VWS V14.01,2013-02-04 05:54:00,
2013-02-03 21:59:00,46.6,46.6,30.06,SSW,202,0.0,0.0,100,0.00,,,0.00,0.00,VWS V14.01,2013-02-04 05:59:00,
2013-02-03 22:00:00,45.9,45.9,30.06,SSW,202,0.0,0.0,100,0.00,,,0.00,0.00,VWS V14.01,2013-02-04 06:00:00,
2013-02-03 22:04:00,46.6,46.6,30.06,SSW,202,0.0,0.0,100,0.00,,,0.00,0.00,VWS V14.01,2013-02-04 06:04:00,
2013-02-03 22:09:00,46.6,46.6,30.06,SSW,202,0.0,0.0,100,0.00,,,0.00,0.00,VWS V14.01,2013-02-04 06:09:00,
2013-02-03 22:14:00,46.4,46.4,30.06,SSW,202,0.0,0.0,100,0.00,,,0.00,0.00,VWS V14.01,2013-02-04 06:14:00,
2013-02-03 22:15:00,45.9,45.9,30.09,SSW,202,0.0,0.0,100,0.00,,,0.00,0.00,VWS V14.01,2013-02-04 06:15:00,
2013-02-03 22:19:00,46.6,46.6,30.06,SSW,202,0.0,0.0,100,0.00,,,0.00,0.00,VWS V14.01,2013-02-04 06:19:00,
2013-02-03 22:24:00,46.6,46.6,30.09,SSW,202,0.0,0.0,100,0.00,,,0.00,0.00,VWS V14.01,2013-02-04 06:24:00,
2013-02-03 22:29:00,46.2,46.2,30.09,SSW,202,0.0,0.0,100,0.00,,,0.00,0.00,VWS V14.01,2013-02-04 06:29:00,
2013-02-03 22:30:00,45.7,45.7,30.06,SSW,202,0.0,1.1,100,0.00,,,0.00,0.00,VWS V14.01,2013-02-04 06:30:00,
2013-02-03 22:34:00,46.0,46.0,30.09,SSW,202,0.0,0.0,100,0.00,,,0.00,0.00,VWS V14.01,2013-02-04 06:34:00,
2013-02-03 22:39:00,45.9,45.9,30.06,SSW,202,0.0,0.0,100,0.00,,,0.00,0.00,VWS V14.01,2013-02-04 06:39:00,
2013-02-03 22:44:00,46.0,46.0,30.06,SSW,202,0.0,0.0,100,0.00,,,0.00,0.00,VWS V14.01,2013-02-04 06:44:00,
2013-02-03 22:45:00,45.3,45.3,30.09,South,180,0.0,0.0,100,0.00,,,0.00,0.00,VWS V14.01,2013-02-04 06:45:00,
2013-02-03 22:49:00,45.9,45.9,30.06,SSW,202,0.0,0.0,100,0.00,,,0.00,0.00,VWS V14.01,2013-02-04 06:49:00,
2013-02-03 22:54:00,45.9,45.9,30.06,SSW,202,0.0,0.0,100,0.00,,,0.00,0.00,VWS V14.01,2013-02-04 06:54:00,
2013-02-03 22:59:00,45.9,45.9,30.06,SSW,202,0.0,0.0,100,0.00,,,0.00,0.00,VWS V14.01,2013-02-04 06:59:00,
2013-02-03 23:00:00,45.3,45.3,30.06,SSW,202,0.0,1.6,100,0.00,,,0.00,0.00,VWS V14.01,2013-02-04 07:00:00,
2013-02-03 23:04:00,46.0,46.0,30.06,SSW,202,0.0,0.0,100,0.00,,,0.00,0.00,VWS V14.01,2013-02-04 07:04:00,
2013-02-03 23:09:00,46.0,46.0,30.09,SSW,202,0.0,0.0,100,0.00,,,0.00,0.00,VWS V14.01,2013-02-04 07:09:00,
2013-02-03 23:14:00,45.9,45.9,30.09,SSW,202,0.0,0.0,100,0.00,,,0.00,0.00,VWS V14.01,2013-02-04 07:14:00,
2013-02-03 23:15:00,45.0,45.0,30.06,SSW,202,0.0,0.0,100,0.00,,,0.00,0.00,VWS V14.01,2013-02-04 07:15:00,
2013-02-03 23:19:00,45.9,45.9,30.09,SSW,202,0.0,0.0,100,0.00,,,0.00,0.00,VWS V14.01,2013-02-04 07:19:00,
2013-02-03 23:24:00,45.7,45.7,30.06,SSW,202,0.0,0.0,100,0.00,,,0.00,0.00,VWS V14.01,2013-02-04 07:24:00,
2013-02-03 23:29:00,45.5,45.5,30.06,SSW,202,0.0,0.0,100,0.00,,,0.00,0.00,VWS V14.01,2013-02-04 07:29:00,
2013-02-03 23:30:00,44.6,44.6,30.06,SSW,202,0.0,0.0,100,0.00,,,0.00,0.00,VWS V14.01,2013-02-04 07:30:00,
2013-02-03 23:34:00,45.5,45.5,30.06,SSW,202,0.0,0.0,100,0.00,,,0.00,0.00,VWS V14.01,2013-02-04 07:34:00,
2013-02-03 23:39:00,45.5,45.5,30.09,SSW,202,0.0,0.0,100,0.00,,,0.00,0.00,VWS V14.01,2013-02-04 07:39:00,
2013-02-03 23:44:00,45.3,45.3,30.09,South,180,0.0,0.0,100,0.00,,,0.00,0.00,VWS V14.01,2013-02-04 07:44:00,
2013-02-03 23:45:00,44.8,44.8,30.06,SSW,202,0.0,0.0,100,0.00,,,0.00,0.00,VWS V14.01,2013-02-04 07:45:00,
2013-02-03 23:49:00,45.5,45.5,30.09,South,180,0.0,0.0,100,0.00,,,0.00,0.00,VWS V14.01,2013-02-04 07:49:00,
2013-02-03 23:54:00,45.3,45.3,30.06,SSW,202,0.0,0.0,100,0.00,,,0.00,0.00,VWS V14.01,2013-02-04 07:54:00,
2013-02-03 23:59:00,45.3,45.3,30.06,SSW,202,0.0,1.6,100,0.00,,,0.00,0.00,VWS V14.01,2013-02-04 07:59:00,